This is the latest recevied weather packets stored in our database for station/object CA4LJZ-10. If no packets are shown the sender has not sent any weather packets the latest 10 day(s).
| Time | Temp. | Humidity | Pressure | Rain* | Wind** | Luminosity | Snow |
|---|---|---|---|---|---|---|---|
| 1777920371 | 21.67° C | 33% | 953.2 hPa | - | - | - | - |
| 1777919470 | 21.11° C | 36% | 953.4 hPa | - | - | - | - |
| 1777918569 | 21.11° C | 36% | 953.7 hPa | - | - | - | - |
| 1777917669 | 21.11° C | 37% | 953.9 hPa | - | - | - | - |
| 1777916768 | 20.56° C | 38% | 953.8 hPa | - | - | - | - |
| 1777915867 | 20.56° C | 36% | 953.9 hPa | - | - | - | - |
| 1777914960 | 20.56° C | 35% | 953.9 hPa | - | - | - | - |
| 1777914059 | 20.56° C | 36% | 954.2 hPa | - | - | - | - |
| 1777913158 | 20.56° C | 35% | 954.3 hPa | - | - | - | - |
| 1777912258 | 20° C | 38% | 954.4 hPa | - | - | - | - |
| 1777911357 | 20° C | 39% | 954.4 hPa | - | - | - | - |
| 1777910841 | 19.44° C | 39% | 954.4 hPa | - | - | - | - |
| 1777910456 | 19.44° C | 39% | 954.4 hPa | - | - | - | - |
| 1777909555 | 20° C | 40% | 954.4 hPa | - | - | - | - |
| 1777908650 | 20° C | 40% | 954.5 hPa | - | - | - | - |
| 1777907749 | 20° C | 38% | 954.5 hPa | - | - | - | - |
| 1777906848 | 20° C | 36% | 954.6 hPa | - | - | - | - |
| 1777905948 | 19.44° C | 38% | 954.5 hPa | - | - | - | - |
| 1777905046 | 20.56° C | 38% | 954.4 hPa | - | - | - | - |
| 1777904169 | 19.44° C | 38% | 954.1 hPa | - | - | - | - |
| 1777903268 | 18.89° C | 42% | 954 hPa | - | - | - | - |
| 1777902367 | 18.89° C | 42% | 954 hPa | - | - | - | - |
| 1777901466 | 18.33° C | 43% | 954.1 hPa | - | - | - | - |
| 1777900566 | 18.33° C | 42% | 954.2 hPa | - | - | - | - |
| 1777899664 | 18.33° C | 41% | 954.2 hPa | - | - | - | - |
* Rain since midnight (hover to see other rain measurements)
** Current wind speed in m/s (hover to see current wind gust speed)